Погода в Владимире

Погода в Владимире : погода сейчас, прогноз погоды и архив. Всё, что Вы хотите узнать о погоде в Владимире!

Хотите узнать прогноз погоды в Владимире? Тогда Вам сюда: Погода в Владимире

Поиск расширенной информации на нашем сайте:

Другие новости

Новости СМИ2

Главная страница сайта

Новости сайта

03.07.2017

Напоминаем, что на нашем специализированном сайте Метеоцентр.Азия вы можете получить высокодетализированные автоматические прогнозы погоды по пунктам России, СНГ и мира в авиационном формате (включающие направление и скорость ветра, видимость, явления погоды, количество и форму облачности, нижнюю и верхнюю границу облачности).


Погода в Владимире - сегодня

Время (UTC), дата Ветер
(°,м/с) 
Видим.   Явления Облачность Т
(°С)
Тd
(°С)
f(%) Тe
(°С)
Pmin
(гПа)
dP
(гПа)
Po
(мм)
O2
(г/м3)
Тmin Tmax R s Состояние
почвы
18 16.06.18 220 (ЮЗ) 10 км    3/0 верхняя 
[Ci fib]
+14.3 +9.1 71 +16  1020.2  0.2  750  285           
21 16.06.18 200 (Ю) 10 км    3/0 верхняя 
[Ci fib]
+10.8 +7.1 78 +12  1021.1  0.6  750  290           
00 17.06.18 тихо ()   10 км    3/0 верхняя 
[Ci fib]
+8.6 +6.4 86 +9  1021.2  750  292           
03 17.06.18 тихо ()   10 км    5/0 верхняя 
[Ci fib]
+14.2 +9.2 72 +14  1021.2  0.4  751  286  +8.5        влажная 
06 17.06.18 360 (С) 10 км    8/3 600 м верхняя 
[Cu hum|Ci fib]
+21.8 +8.8 43 +22  1020.2  0.4  750  278           
09 17.06.18 320 (СЗ) 10 км    6/3 600 м верхняя 
[Cu hum|Ci fib]
+23.6 +7.8 36 +24  1019.7  -0.4  750  277           
12 17.06.18 020 (С) 10 км    8/3 600 м верхняя 
[Cu hum|Ci fib]
+24.8 +6 30 +25  1018.4  -1.2  749  276           
15 17.06.18 010 (С) 10 км    6/0 верхняя 
[Ci fib]
+24 +8.5 37 +24  1017.5  -1  748  276           
18 17.06.18 210 (ЮЗ) 10 км    5/0 верхняя 
[Ci fib]
+16.9 +10.3 65 +20  1018.1  0.1  748  282           
21 17.06.18 220 (ЮЗ) 10 км    8/0 средняя, верхняя 
[Ac trans|Ci fib]
+14.6 +10.2 75 +17  1017.9  -0.3  748  284           
00 18.06.18 220 (ЮЗ) 10 км    8/0 верхняя 
[Ci fib]
+12.9 +8.9 77 +14  1018.1  0.1  748  286           
03 18.06.18 тихо ()   10 км    3/0 верхняя 
[Ci fib]
+18.5 +11.8 65 +22  1017.5  -0.2  748  280  +12.7        сухая 
06 18.06.18 280 (З) 10 км    3/0 верхняя 
[Ci fib]
+24 +12.9 50 +29  1016.6  -0.5  748  274           
09 18.06.18 300 (СЗ) 10 км    6/6 600 м 
[Cu hum]
+26.4 +11 38 +29  1015.8  -0.6  747  273           
12 18.06.18 280 (З) 10 км    6/6 600 м 
[Cu hum]
+27.8 +9.4 32 +28  1014.9  -0.9  747  271           
18 18.06.18 210 (ЮЗ) 10 км    3/0 средняя 
[Ac trans]
+20.2 +12.7 62 +25  1014.1  -0.1  746  277           
21 18.06.18 тихо ()   10 км    ясно 
+15.3 +11.4 78 +18  1014.2  -0.2  746  282           
00 19.06.18 220 (ЮЗ) 10 км    ясно 
+16.1 +10.2 68 +19  1014.1  0.1  745  282           
03 19.06.18 200 (Ю) 10 км    3/0 средняя 
[Ac trans]
+18.6 +11 61 +23  1013.4  -0.5  745  279  +14.8        сухая 
06 19.06.18 230 (ЮЗ) 10 км    6/0 верхняя 
[Ci fib]
+23.6 +11.8 48 +27  1012.4  -0.6  745  274           
09 19.06.18 220 (ЮЗ) 10 км    9/6 600 м верхняя 
[Cu med, cong|Ci fib]
+26.5 +10.3 36 +28  1010.9  -1.3  744  271           
21 19.06.18 230 (ЮЗ) 10 км    9/6 600 м средняя 
[Sc|Ac trans]
+17.1 +14.5 85 +25  1007.1  -1.5  740  278           
00 20.06.18 230 (ЮЗ) 10 км    10/6 600 м средняя 
[Sc|Ac und]
+17.2 +13.9 81 +25  1005.6  -1.5  739  277           
03 20.06.18 270 (З) 10 км  в посл. час ливневой дождь  9/9 600 м кучево-дожд. 
[Cb calv]
+16.8 +12.9 78 +23  1005.5  -0.1  739  278  +16.6    0.0    влажная 
09 20.06.18 280 (З) 5{13}  10 км    8/8 600 м 
[Cu hum]
+20.1 +4.2 35 +20  1007.4  -0.1  741  277           
Время (UTC), дата Ветер
(°,м/с) 
Видим.   Явления Облачность Т
(°С)
Тd
(°С)
f(%) Тe
(°С)
Pmin
(гПа)
dP
(гПа)
Po
(мм)
O2
(г/м3)
Тmin Tmax R s Состояние
почвы

Для получения пояснительной информации подведите курсор к названию столбца.

ПОГОДА в Владимире - архив

Всё, что Вы хотите узнать о погоде в Владимире - удобно и подробно!

Выберите нужную дату (начиная с 1 января 2015* года) и нажмите кнопку "Найти".
Будут отображены архивные сводки погоды по пункту Владимир, начиная с указанной даты.


Отображать данные в формате CSV (для использования в таблицах Excel)


Внимание! Наш архив погоды предназначен исключительно для личного некоммерческого использования в познавательных целях. Если Вам необходимы официальные справки о состоянии погоды (для производственных, юридических, коммерческих и т.п. целей), обращайтесь в органы Росгидромета.

*Примечание: данная дата относится к архиву по метеостанциям СССР (Россия, СНГ, Балтия).
Архив по метеостанциям Зарубежной Европы и Азии (кроме Китая) хранится 10 дней, по другим регионам земного шара (Китай, Африка, Америка, Австралия, Океания) - 1 день.

Владимир - район местоположения метеостанции


Название, широта, долгота, высота метеостанции:
Владимир 56.1°ш. 40.3°д. 172 м над ур. моря [Российская Федерация]

Дополнительная информация

В oтличие oт бoльшинства пoгoдных сайтoв мы публикуем пoдрoбную метеoинфoрмацию в детальнoм прoфессиoнальнoм фoрмате.

Характеристики температуры и влажнoсти вoздуха измеряются на высoте 2 м в тени вдали oт зданий и деревьев.
Скoрoсть ветра измеряется на высoте 10 м (на урoвне рoста челoвека скoрoсть ветра ниже в 1.5-2 раза). Если метеoстанция нахoдится в гoрoде или в лесу, тo скoрoсть ветра занижена на 2-4 м/с пo сравнению с oткрытым местoм. Скoрoсть ветра над акватoриями крупных рек и oзёр, а также на вершинах хoлмoв на 2-5 м/с выше, чем в oбычных услoвиях.
Атмoсфернoе давление в разных тoчках местнoсти мoжет значительнo oтличаться oт давления на метеoстанции, в зависимoсти oт услoвий рельефа (при пoдъёме на 10 м давление пoнижается примернo на 1 мм рт.ст.).